weather.gov     
National Weather Service

Terminal Aerodrome Forecast
NWS Homepage
This page is being discontinued on March 12, 2014.
The same data is available at this site. Please update your bookmarks.
Thank you, and we apologize for the inconvenience.
Please send an email to SR-SRH.Webmaster@noaa.gov with any concerns.


Current Version
Previous Version:    01  02  03  04  05  06  07  08  09  10  11  12  13  14  15  16  17  18  19  20  21  22  23  24  25  26  27  28  29  30  
   31  32  33  34  35  36  37  38  39  40  41  42  43  44  45  46  47  48  49  
[Printable]
992
FTUS43 KLSX 012000 AAB
TAFUIN
TAF AMD
KUIN 012030Z 0121/0218 14008KT 4SM -SHRA SCT030 BKN060
      TEMPO 0121/0123 2SM TSRA BKN030CB
     FM020000 14007KT P6SM VCSH SCT040 BKN080
     FM020300 17006KT 4SM -SHRA VCTS OVC035CB
     FM021200 16006KT P6SM SCT010 BKN035=


U.S. Dept. of Commerce
NOAA National Weather Service
1325 East West Highway
Silver Spring, MD 20910
E-mail: w-nws.webmaster@noaa.gov
Page last modified: May 16, 2007
NATIONAL WEATHER SERVICE: for Safety, for Work, for Fun - FOR LIFE